Home > Weather > Turkey > Gaziantep > Past weeks

Flag for Turkey Weather past 2 weeks in Gaziantep, Turkey

46 °F


Feels Like: 46 °F
Forecast: 28 / 53 °F
Wind: No wind

Location: Gaziantep Airport

Current Time: Dec 1, 2015 at 6:29:18 PM

Latest Report: Dec 1, 2015 at 5:50 PM

Visibility: 10 mi

Pressure: 30.07 "Hg (27.10 "Hg at 856m altitude)

Humidity: 62%

Dew point: 34 °F

Location of GaziantepLocation

Historic Weather in Gaziantep — Graph


Gaziantep temperature yesterday

Maximum temperature yesterday: 54 °F (at 1:20 PM)
Minimum temperature yesterday: 39 °F (at 3:20 AM)
Average temperature yesterday: 48 °F

Past Weeks' High & Low Weather Summary

High72 °F (Nov 24, 1:50 PM)94% (Nov 17, 1:50 AM)30.27 "Hg (Nov 17, 1:50 AM)
Low30 °F (Nov 24, 4:20 AM)8% (Nov 18, 2:50 PM)29.92 "Hg (Nov 16, 8:50 PM)
Average50 °F59%30.11 "Hg
* Reported Nov 16 5:20 PM — Dec 1 5:20 PM, Gaziantep, Weather by CustomWeather, © 2015

Note: Actual official high and low records may vary slightly from our data, if they occured in-between our weather recording intervals... More about our weather records


Gaziantep weather history for previous 24 hours

Time TempWeatherWind HumidityBarometerVisibility
5:20 PM
Tue, Dec 1
46 °FClear.2 mph66%30.04 "Hg10 mi
4:50 PM50 °FClear.2 mph58%30.04 "Hg10 mi
4:20 PM52 °FClear.5 mph50%30.04 "Hg10 mi
3:50 PM54 °FSunny.6 mph47%30.04 "Hg10 mi
3:20 PM55 °FPassing clouds.5 mph41%30.01 "HgN/A
2:50 PM55 °FSunny.8 mph44%30.01 "Hg10 mi
2:20 PM57 °FSunny.2 mph39%30.01 "Hg10 mi
1:50 PM57 °FSunny.2 mph39%30.01 "Hg10 mi
1:20 PM55 °FSunny.2 mph41%30.01 "Hg10 mi
12:50 PM55 °FSunny.2 mph44%30.01 "Hg10 mi
12:20 PM57 °FPassing clouds.5 mph44%30.01 "HgN/A
11:50 AM55 °FPassing clouds.5 mph44%30.04 "HgN/A
11:20 AM55 °FPassing clouds.6 mph47%30.04 "HgN/A
10:50 AM54 °FSunny.8 mph47%30.04 "Hg10 mi
9:50 AM52 °FPassing clouds.8 mph62%30.04 "HgN/A
8:50 AM50 °FSunny.No wind71%30.04 "Hg10 mi
8:20 AM46 °FFog.No wind82%30.04 "Hg3 mi
7:50 AM45 °FPassing clouds.No wind87%30.04 "HgN/A
7:20 AM41 °FPassing clouds.1 mph87%30.04 "HgN/A
6:50 AM37 °FPassing clouds.No wind93%30.01 "HgN/A
6:20 AM37 °FPassing clouds.No wind93%30.01 "HgN/A
5:50 AM39 °FPassing clouds.No wind93%29.98 "HgN/A
5:20 AM39 °FPassing clouds.No wind93%29.98 "HgN/A
4:50 AM41 °FPassing clouds.5 mph93%29.98 "HgN/A
4:20 AM41 °FPassing clouds.1 mph93%29.98 "HgN/A
3:50 AM39 °FPassing clouds.2 mph93%29.98 "HgN/A
3:20 AM39 °FPassing clouds.2 mph93%29.98 "HgN/A
2:50 AM39 °FPassing clouds.No wind93%29.98 "HgN/A
1:50 AM41 °FPassing clouds.No wind93%29.98 "HgN/A
12:50 AM43 °FPassing clouds.1 mph93%29.98 "HgN/A
12:20 AM43 °FPartly cloudy.6 mph93%29.98 "HgN/A
11:50 PM
Mon, Nov 30
45 °FPartly cloudy.No wind93%29.98 "HgN/A
11:20 PM46 °FPartly cloudy.3 mph93%29.98 "HgN/A
10:50 PM46 °FSprinkles. Partly cloudy.5 mph93%29.98 "Hg5 mi
10:20 PM48 °FSprinkles. Partly cloudy.No wind94%29.95 "Hg5 mi
9:50 PM48 °FRain showers. Partly cloudy.3 mph94%29.98 "Hg4 mi
9:20 PM48 °FSprinkles. Partly cloudy.No wind94%29.98 "Hg4 mi
8:50 PM48 °FSprinkles. Partly cloudy.2 mph94%30.01 "Hg4 mi
8:20 PM50 °FSprinkles. Partly cloudy.2 mph88%29.98 "Hg4 mi
7:50 PM50 °FSprinkles. Partly cloudy.No wind94%29.98 "Hg4 mi
7:20 PM50 °FSprinkles. Partly cloudy.5 mph94%29.98 "Hg4 mi
6:50 PM50 °FSprinkles. Fog.No wind94%29.98 "Hg3 mi
6:20 PM50 °FSprinkles. Partly cloudy.No wind94%29.98 "Hg4 mi
Weather by CustomWeather, © 2015

See weather overviewHow to use our weather pages